KC3BAN-13 Weather Reports


time (UTC)temp
F
wind
direction
speed
knots
gust
knots
rain 1hr
in
rain 24hr
in
rain mn
in
humidity
%
barometer
mb
20260507101036 53 109 0.0 2.6 0.00 0.40 0.28 88 1004.2
20260507100758 53 109 0.0 2.6 0.00 0.40 0.28 88 1004.2
20260507100032 53 58 0.0 0.0 0.00 0.40 0.28 88 1004.2
20260507095526 53 58 0.0 1.7 0.00 0.40 0.28 88 1004.3
20260507095241 53 58 0.0 1.7 0.00 0.40 0.28 88 1004.3
20260507094514 53 91 0.0 0.0 0.00 0.40 0.28 88 1004.4
20260507094236 53 91 0.0 0.0 0.00 0.40 0.28 88 1004.1
20260507093502 53 91 0.0 1.7 0.00 0.40 0.28 88 1004.1
20260507092956 53 91 0.0 1.7 0.00 0.40 0.28 88 1004.2
20260507092450 53 103 0.0 0.0 0.00 0.40 0.28 88 1004.3
20260507091944 53 103 0.0 0.0 0.00 0.40 0.28 88 1004.3
20260507091438 54 103 0.0 0.0 0.00 0.40 0.28 88 1004.2
20260507090931 54 103 0.0 0.0 0.00 0.40 0.28 88 1004.1
20260507090650 54 103 0.0 0.0 0.00 0.40 0.28 88 1004.1
20260507085920 54 103 0.0 0.0 0.00 0.40 0.28 88 1003.9
20260507084908 54 103 0.0 1.7 0.00 0.40 0.28 88 1003.8
20260507084627 54 103 0.0 1.7 0.00 0.40 0.28 88 1004.1
20260507083856 54 89 0.0 1.7 0.00 0.40 0.28 88 1004.1
20260507083349 54 264 0.0 0.9 0.00 0.40 0.28 88 1004.0
20260507082844 54 264 0.0 0.9 0.00 0.40 0.28 88 1003.9
20260507082338 54 110 0.0 0.9 0.00 0.40 0.28 88 1003.8
20260507081833 54 110 0.0 2.6 0.00 0.40 0.28 88 1003.7
20260507081326 55 72 0.0 2.6 0.00 0.40 0.28 88 1003.5
20260507080820 55 117 0.9 5.2 0.00 0.40 0.28 88 1003.2
20260507080536 55 117 0.9 5.2 0.00 0.40 0.28 88 1003.3
20260507075808 55 61 0.9 5.2 0.00 0.40 0.28 88 1003.4
20260507075301 55 245 0.9 4.3 0.00 0.40 0.28 88 1003.3
20260507074756 56 131 0.9 3.5 0.00 0.40 0.28 87 1003.3
20260507074250 56 91 0.9 3.5 0.00 0.40 0.28 87 1003.0
20260507074008 56 70 0.9 3.5 0.00 0.40 0.28 87 1002.9
20260507073238 56 74 0.0 3.5 0.00 0.40 0.28 87 1002.9
20260507072732 56 53 0.0 2.6 0.00 0.40 0.28 87 1003.0
20260507072226 56 96 0.0 0.9 0.00 0.40 0.28 87 1002.9
20260507071721 56 289 0.0 2.6 0.00 0.40 0.28 87 1002.9
20260507071214 56 287 0.0 2.6 0.00 0.40 0.28 87 1002.7
20260507070708 56 181 0.0 1.7 0.00 0.40 0.28 87 1002.7
20260507070202 56 122 0.0 1.7 0.01 0.40 0.28 87 1002.8
20260507065150 56 351 0.0 4.3 0.01 0.40 0.28 87 1002.9
20260507064909 56 93 0.0 2.6 0.01 0.40 0.28 87 1002.8
20260507064138 57 150 0.9 5.2 0.01 0.40 0.28 87 1002.6
20260507063127 57 310 1.7 5.2 0.02 0.40 0.28 87 1002.4
20260507062845 57 72 0.9 5.2 0.04 0.40 0.28 87 1002.2
20260507062114 57 91 0.9 3.5 0.06 0.40 0.28 88 1002.2
20260507061608 58 48 0.9 3.5 0.07 0.40 0.28 87 1002.3
20260507061102 58 81 0.9 2.6 0.11 0.40 0.28 87 1002.5
20260507060820 58 63 0.9 2.6 0.12 0.39 0.28 87 1002.4
20260507060050 58 89 0.0 0.9 0.13 0.39 0.27 87 1002.6
20260507055544 58 89 0.0 2.6 0.16 0.39 0.27 87 1002.7
20260507055305 59 100 0.0 2.6 0.17 0.39 0.27 87 1003.0
20260507054533 59 105 0.0 2.6 0.17 0.39 0.27 87 1002.7
20260507054244 59 105 0.0 2.6 0.21 0.39 0.27 87 1002.5
20260507053520 59 123 0.0 1.7 0.27 0.39 0.27 87 1002.4
20260507053014 60 120 0.0 2.6 0.26 0.38 0.26 87 1002.6
20260507052508 60 58 0.0 2.6 0.24 0.36 0.24 87 1002.7
20260507052003 60 187 0.9 1.7 0.22 0.34 0.22 87 1002.7
20260507051456 60 64 0.9 1.7 0.19 0.31 0.20 87 1002.6
20260507050950 60 141 0.0 1.7 0.17 0.29 0.17 87 1003.2
20260507050444 60 228 0.0 1.7 0.15 0.27 0.15 87 1003.0
20260507045937 61 103 0.0 0.9 0.13 0.25 0.13 87 1002.3
20260507045432 61 103 0.0 0.0 0.11 0.23 0.11 86 1002.9
20260507044926 62 103 0.0 1.7 0.10 0.22 0.10 86 1002.8
20260507044421 62 103 0.0 1.7 0.10 0.22 0.10 85 1003.1
20260507043914 62 101 0.0 3.5 0.03 0.15 0.03 84 1003.1
20260507043639 62 70 0.9 3.5 0.00 0.12 0.00 84 1003.0
20260507042903 62 296 0.9 2.6 0.00 0.12 0.00 84 1002.8
20260507042356 62 175 0.0 2.6 0.00 0.12 0.00 84 1003.0
20260507041850 62 96 0.0 2.6 0.00 0.12 0.00 84 1002.7
20260507041348 62 15 0.0 2.6 0.00 0.12 0.00 84 1002.4
20260507040848 62 271 0.0 2.6 0.00 0.12 0.00 85 1002.3
20260507040347 62 142 0.0 2.6 0.00 0.12 0.00 85 1002.3
20260507035848 63 279 0.9 3.5 0.00 0.12 0.12 86 1002.3
20260507035345 63 40 0.9 5.2 0.00 0.12 0.12 87 1002.3
20260507034845 64 61 1.7 5.2 0.00 0.12 0.12 87 1002.4
20260507034343 64 98 0.9 4.3 0.00 0.12 0.12 87 1002.3
20260507033844 64 281 0.0 2.6 0.00 0.12 0.12 87 1002.2
20260507033344 64 195 0.0 0.0 0.00 0.12 0.12 87 1002.1
20260507032841 64 195 0.0 0.0 0.00 0.12 0.12 87 1002.1
20260507032339 64 195 0.0 1.7 0.00 0.12 0.12 87 1001.9
20260507031841 64 195 0.0 1.7 0.00 0.12 0.12 87 1001.8
20260507031336 65 75 0.0 0.9 0.00 0.12 0.12 87 1002.0
20260507030835 65 75 0.0 0.9 0.00 0.12 0.12 87 1002.1
20260507030334 64 75 0.0 1.7 0.00 0.12 0.12 86 1002.1
20260507025834 64 75 0.0 1.7 0.00 0.12 0.12 86 1002.0
20260507025327 64 228 0.0 0.9 0.00 0.12 0.12 87 1001.8
20260507024825 64 216 0.0 0.0 0.00 0.12 0.12 87 1001.7
20260507024324 64 216 0.0 0.0 0.00 0.12 0.12 87 1001.6
20260507023821 64 216 0.0 0.0 0.00 0.12 0.12 87 1001.3
20260507023551 64 216 0.0 0.0 0.00 0.12 0.12 87 1001.5
20260507022821 64 216 0.0 0.0 0.00 0.12 0.12 87 1001.5
20260507022319 64 216 0.0 0.0 0.00 0.12 0.12 87 1001.4
20260507021819 64 216 0.0 0.0 0.00 0.12 0.12 87 1001.3
20260507021316 64 216 0.0 0.0 0.00 0.12 0.12 87 1001.5
20260507020814 64 216 0.0 0.0 0.00 0.12 0.12 87 1001.4
20260507020311 64 216 0.0 0.0 0.00 0.12 0.12 87 1001.6
20260507015809 64 216 0.0 0.0 0.00 0.12 0.12 87 1001.5
20260507015307 64 216 0.0 0.0 0.00 0.12 0.12 87 1001.4
20260507014806 64 216 0.0 0.0 0.00 0.12 0.12 87 1001.4
20260507014305 64 216 0.0 0.0 0.00 0.12 0.12 87 1001.5
20260507014025 64 216 0.0 0.0 0.00 0.12 0.12 87 1001.6
20260507013304 64 216 0.0 0.0 0.00 0.12 0.12 87 1001.8
20260507012801 64 216 0.0 0.0 0.00 0.12 0.12 87 1002.1
20260507012259 64 216 0.0 0.0 0.00 0.12 0.12 87 1002.1
20260507011757 64 216 0.0 0.0 0.00 0.12 0.12 87 1002.1
20260507011259 64 216 0.0 0.0 0.00 0.12 0.12 87 1002.1
20260507010248 64 216 0.0 0.0 0.00 0.12 0.12 87 1001.9
20260507005741 64 216 0.0 0.0 0.00 0.12 0.12 87 1001.8
20260507005237 65 216 0.0 0.0 0.00 0.12 0.12 86 1001.6
20260507004950 65 216 0.0 0.0 0.00 0.12 0.12 86 1001.6
20260507004223 65 216 0.0 0.0 0.00 0.12 0.12 86 1001.5
20260507003717 65 216 0.0 0.0 0.00 0.12 0.12 86 1001.7
20260507003211 65 216 0.0 0.0 0.00 0.12 0.12 85 1001.5
20260507002708 66 216 0.0 0.0 0.00 0.12 0.12 85 1001.4
20260507002159 66 216 0.0 0.0 0.00 0.12 0.12 85 1001.4
20260507001653 66 216 0.0 0.0 0.00 0.12 0.12 84 1001.5
20260507001148 66 216 0.0 0.0 0.00 0.12 0.12 84 1001.6
20260507000641 67 216 0.0 0.0 0.00 0.12 0.12 84 1001.6
20260507000137 67 216 0.0 0.0 0.00 0.12 0.12 84 1001.4
20260506235629 67 216 0.0 0.0 0.00 0.12 0.12 83 1001.5
20260506235123 67 216 0.0 0.0 0.00 0.12 0.12 83 1001.3
20260506234617 67 216 0.0 0.0 0.00 0.12 0.12 83 1001.3
20260506234110 68 216 0.0 0.0 0.00 0.12 0.12 82 1001.2
20260506233607 68 216 0.0 0.9 0.00 0.12 0.12 82 1001.2
20260506233059 68 216 0.0 0.9 0.00 0.12 0.12 82 1001.1
20260506232047 69 168 0.0 2.6 0.00 0.12 0.12 81 1000.9
20260506231037 69 166 0.9 2.6 0.00 0.12 0.12 80 1000.9
20260506230530 69 176 0.9 5.2 0.00 0.12 0.12 80 1001.0
20260506230023 69 184 0.9 5.2 0.00 0.12 0.12 80 1001.0
20260506225518 69 235 0.9 4.3 0.00 0.12 0.12 79 1001.1
20260506225011 69 242 0.9 4.3 0.00 0.12 0.12 79 1000.9
20260506224507 69 213 0.9 4.3 0.00 0.12 0.12 79 1000.8
20260506223959 70 214 0.9 3.5 0.00 0.12 0.12 79 1000.8
20260506223453 70 186 0.9 4.3 0.00 0.12 0.12 79 1000.9
20260506222947 70 204 0.9 4.3 0.00 0.12 0.12 78 1000.9
20260506222706 70 207 1.7 8.7 0.00 0.12 0.12 78 1000.9
20260506221937 70 200 1.7 8.7 0.00 0.12 0.12 77 1000.9
20260506221430 70 204 2.6 7.0 0.00 0.12 0.12 77 1001.0
20260506221147 71 195 2.6 7.0 0.00 0.12 0.12 77 1001.0
20260506220417 71 205 1.7 5.2 0.00 0.12 0.12 76 1000.8
20260506215911 71 205 0.9 4.3 0.00 0.12 0.12 76 1000.9
20260506215406 71 174 0.9 5.2 0.00 0.12 0.12 77 1001.0
20260506214859 71 202 1.7 6.1 0.00 0.12 0.12 77 1001.1
20260506214353 71 212 1.7 6.1 0.00 0.12 0.12 76 1001.0
20260506213847 71 279 1.7 5.2 0.00 0.12 0.12 76 1000.9
20260506213341 71 242 2.6 7.0 0.00 0.12 0.12 75 1000.8
20260506212836 71 283 1.7 7.0 0.00 0.12 0.12 75 1000.7
20260506212329 71 269 1.7 7.0 0.00 0.12 0.12 77 1000.7
20260506211823 71 160 1.7 7.0 0.00 0.12 0.12 76 1000.6
20260506211317 71 236 1.7 6.1 0.00 0.12 0.12 77 1000.6
20260506210812 71 56 2.6 7.0 0.00 0.12 0.12 77 1000.5
20260506210307 70 222 3.5 9.6 0.00 0.12 0.12 77 1000.4
20260506205759 71 213 2.6 9.6 0.00 0.12 0.12 77 1000.4
20260506205253 71 193 1.7 8.7 0.00 0.12 0.12 78 1000.4
20260506204747 71 209 1.7 8.7 0.00 0.12 0.12 78 1000.4
20260506204242 70 198 1.7 6.1 0.00 0.12 0.12 79 1000.3
20260506203737 70 217 1.7 5.2 0.00 0.12 0.12 79 1000.4
20260506203229 70 221 2.6 6.1 0.00 0.12 0.12 80 1000.4
20260506202723 70 193 2.6 7.0 0.00 0.12 0.12 79 1000.4
20260506202217 70 227 2.6 7.0 0.00 0.12 0.12 79 1000.4
20260506201711 70 242 2.6 7.8 0.00 0.12 0.12 79 1000.5
20260506201434 70 215 2.6 9.6 0.00 0.12 0.12 78 1000.5
20260506200659 70 216 1.7 9.6 0.00 0.12 0.12 78 1000.5
20260506200153 70 258 1.7 7.0 0.00 0.12 0.12 78 1000.4
20260506195648 70 198 1.7 5.2 0.00 0.12 0.12 79 1000.4
20260506195141 71 224 1.7 5.2 0.00 0.12 0.12 77 1000.5
20260506194637 71 153 0.9 4.3 0.00 0.12 0.12 79 1000.4
20260506194130 71 285 1.7 7.0 0.00 0.12 0.12 78 1000.4
20260506193623 70 220 1.7 7.0 0.00 0.12 0.12 79 1000.6
20260506193118 70 282 0.9 5.2 0.00 0.12 0.12 80 1000.6
20260506192612 69 225 1.7 9.6 0.00 0.12 0.12 80 1000.6
20260506192335 69 108 1.7 9.6 0.00 0.12 0.12 79 1000.8
20260506191822 69 213 1.7 8.7 0.00 0.12 0.12 79 1000.8
20260506191054 69 262 0.9 4.3 0.00 0.12 0.12 79 1000.9
20260506190547 69 238 1.7 7.8 0.00 0.12 0.12 80 1000.9
20260506190040 69 224 2.6 7.8 0.00 0.12 0.12 79 1001.0
20260506185533 69 190 1.7 7.0 0.00 0.12 0.12 78 1001.1
20260506185028 69 281 2.6 6.1 0.00 0.12 0.12 79 1001.0
20260506184521 69 143 1.7 8.7 0.00 0.12 0.12 79 1001.0
20260506184017 69 202 2.6 8.7 0.00 0.12 0.12 78 1001.1
20260506183728 69 241 1.7 7.0 0.00 0.12 0.12 78 1001.3
20260506183005 69 119 1.7 5.2 0.00 0.12 0.12 80 1001.3
20260506182457 69 251 0.9 6.1 0.00 0.12 0.12 79 1001.2
20260506181951 69 240 1.7 12.2 0.00 0.12 0.12 80 1001.4
20260506181708 69 153 2.6 12.2 0.01 0.12 0.12 80 1001.6
20260506180939 69 266 2.6 10.4 0.01 0.12 0.12 80 1001.5
20260506180437 68 146 2.6 7.0 0.01 0.12 0.12 81 1001.6
20260506175938 68 243 2.6 7.8 0.01 0.12 0.12 82 1001.7
20260506175438 67 136 2.6 7.8 0.01 0.12 0.12 82 1001.7
20260506174935 67 96 1.7 6.1 0.01 0.12 0.12 84 1001.7
20260506174656 67 255 2.6 7.8 0.01 0.12 0.12 83 1001.9
20260506173935 67 217 2.6 7.8 0.01 0.12 0.12 84 1001.5
20260506173706 66 274 2.6 11.3 0.01 0.12 0.12 84 1001.6
20260506172935 66 198 2.6 11.3 0.01 0.12 0.12 84 1001.7
20260506172434 66 211 3.5 11.3 0.01 0.12 0.12 84 1001.9
20260506171934 66 205 3.5 12.2 0.01 0.12 0.12 84 1001.9
20260506171434 66 223 3.5 12.2 0.00 0.11 0.11 85 1001.9
20260506170934 66 236 1.7 10.4 0.00 0.11 0.11 86 1002.0
20260506170434 66 167 1.7 8.7 0.00 0.11 0.11 86 1001.8
20260506165934 65 215 1.7 6.1 0.00 0.11 0.11 87 1001.9
20260506165434 65 218 1.7 6.1 0.00 0.11 0.11 87 1001.9
20260506164934 65 227 1.7 8.7 0.00 0.11 0.11 87 1001.9
20260506164434 64 92 1.7 8.7 0.00 0.11 0.11 87 1002.0
20260506163931 65 217 0.9 6.1 0.00 0.11 0.11 87 1002.0
20260506163430 64 269 1.7 8.7 0.01 0.11 0.11 87 1001.9
20260506162930 64 188 1.7 8.7 0.01 0.11 0.11 87 1002.0
20260506162433 64 223 2.6 8.7 0.01 0.11 0.11 87 1002.1
20260506161931 64 209 1.7 6.1 0.01 0.11 0.11 87 1002.0
20260506161432 64 126 1.7 7.8 0.02 0.11 0.11 87 1001.9
20260506160931 63 148 1.7 7.8 0.02 0.11 0.11 87 1002.3
20260506160430 63 245 0.9 5.2 0.02 0.11 0.11 87 1002.4
20260506155930 63 206 0.9 5.2 0.02 0.11 0.11 87 1002.4
20260506155428 63 223 0.9 6.1 0.03 0.11 0.11 87 1002.4
20260506154929 63 124 1.7 6.1 0.03 0.11 0.11 87 1002.4
20260506154429 63 168 0.9 4.3 0.04 0.11 0.11 87 1002.2
20260506153929 62 211 0.9 2.6 0.06 0.11 0.11 87 1002.1
20260506153644 62 212 0.9 5.2 0.06 0.10 0.10 87 1002.3
20260506152921 62 225 0.9 5.2 0.07 0.10 0.10 87 1002.5
20260506152420 63 231 0.9 4.3 0.08 0.10 0.10 87 1002.9
20260506151921 63 127 0.9 5.2 0.09 0.10 0.10 87 1003.1
20260506151421 63 235 0.9 5.2 0.08 0.09 0.09 87 1003.2
20260506150920 62 212 0.0 4.3 0.08 0.09 0.09 87 1003.2
20260506150420 62 217 0.0 1.7 0.08 0.09 0.09 87 1003.1
20260506145921 62 205 0.0 1.7 0.08 0.09 0.09 87 1003.1
20260506145420 62 150 0.0 1.7 0.08 0.08 0.08 87 1003.0
20260506144921 62 238 0.0 1.7 0.08 0.08 0.08 87 1003.2
20260506144417 62 264 0.0 1.7 0.07 0.07 0.07 87 1003.2
20260506144146 62 159 0.0 2.6 0.05 0.05 0.06 86 1003.1
20260506143416 62 205 0.9 5.2 0.04 0.04 0.04 86 1003.1
20260506142917 62 236 0.9 5.2 0.03 0.03 0.03 86 1003.1
20260506141916 63 176 0.9 5.2 0.01 0.01 0.01 85 1003.1
20260506141417 63 219 0.9 7.0 0.01 0.01 0.01 85 1003.2
20260506140917 63 177 1.7 7.0 0.01 0.01 0.01 84 1003.3
20260506140417 64 229 1.7 6.1 0.01 0.01 0.01 83 1003.3
20260506135914 64 27 1.7 6.1 0.01 0.01 0.01 81 1003.4
20260506135644 65 225 0.9 6.1 0.00 0.00 0.00 80 1003.3
20260506134914 65 148 0.9 5.2 0.00 0.00 0.00 78 1003.4
20260506134414 65 261 0.9 8.7 0.00 0.00 0.00 78 1003.4
20260506133914 65 236 1.7 8.7 0.00 0.00 0.00 77 1003.4
20260506133414 65 236 0.9 5.2 0.00 0.00 0.00 77 1003.4
20260506132914 65 253 0.9 3.5 0.00 0.00 0.00 77 1003.4
20260506132639 65 249 0.9 5.2 0.00 0.00 0.00 77 1003.2
20260506131914 65 226 1.7 5.2 0.00 0.00 0.00 77 1003.2
20260506131409 65 224 1.7 7.0 0.00 0.00 0.00 76 1003.1
20260506131134 65 211 0.9 7.0 0.00 0.00 0.00 77 1003.1
20260506130408 65 234 0.9 3.5 0.00 0.00 0.00 77 1003.0
20260506125908 65 229 0.9 6.1 0.00 0.00 0.00 76 1003.0
20260506125408 65 217 0.9 6.1 0.00 0.00 0.00 76 1003.0
20260506124909 65 140 1.7 7.0 0.00 0.00 0.00 76 1002.9
20260506124409 65 209 0.9 7.0 0.00 0.00 0.00 76 1002.9
20260506124134 65 234 0.9 4.3 0.00 0.00 0.00 76 1002.9
20260506123408 65 117 0.9 4.3 0.00 0.00 0.00 76 1003.0
20260506122905 65 222 0.9 6.1 0.00 0.00 0.00 76 1003.1
20260506122404 66 127 0.9 6.1 0.00 0.00 0.00 75 1003.2
20260506121904 66 234 0.9 5.2 0.00 0.00 0.00 76 1003.2
20260506121404 66 152 0.9 4.3 0.00 0.00 0.00 76 1003.2
20260506120904 66 9 0.9 6.1 0.00 0.00 0.00 76 1003.3
20260506120631 66 214 0.9 7.0 0.00 0.00 0.00 76 1003.2
20260506115904 66 245 1.7 7.0 0.00 0.00 0.00 75 1003.2
20260506115402 66 224 1.7 7.0 0.00 0.00 0.00 75 1003.1
20260506114400 66 162 0.9 5.2 0.00 0.00 0.00 76 1003.0
20260506113900 66 222 0.9 8.7 0.00 0.00 0.00 76 1002.9
20260506113354 66 259 1.7 8.7 0.00 0.00 0.00 76 1002.9
20260506112849 66 299 1.7 7.0 0.00 0.00 0.00 77 1002.8
20260506112346 65 155 2.6 5.2 0.00 0.00 0.00 77 1002.9
20260506111846 65 231 1.7 7.0 0.00 0.00 0.00 78 1002.6
20260506111346 65 198 1.7 7.0 0.00 0.00 0.00 78 1002.7
20260506110845 65 223 1.7 7.0 0.00 0.00 0.00 78 1002.7
20260506110611 65 250 1.7 7.0 0.00 0.00 0.00 78 1002.7
20260506105841 65 116 1.7 7.0 0.00 0.00 0.00 79 1002.6
20260506105602 64 265 1.7 7.0 0.00 0.00 0.00 79 1002.7
20260506104838 64 122 1.7 5.2 0.00 0.00 0.00 79 1002.6
20260506104339 64 120 1.7 7.0 0.00 0.00 0.00 79 1002.5
20260506103836 64 277 1.7 7.0 0.00 0.00 0.00 79 1002.6
20260506103337 64 297 0.9 7.0 0.00 0.00 0.00 79 1002.5
20260506102836 64 205 0.9 7.0 0.00 0.00 0.00 80 1002.5
20260506102334 64 176 1.7 7.0 0.00 0.00 0.00 80 1002.5
20260506101835 64 276 0.9 7.0 0.00 0.00 0.00 80 1002.5